Wind_Speed
27 29 32 33 34 35 36 37 39 40 42 44 43 42 42 41 41 41 40 39 37 37 36 35 34 33 33 32 31 31 32 34 36 38 40 42 41 39 37 35 35 34 33 33 33 34 36 37 37 37 37 38 37 36 35 34 34 34 34 34 33 33 32 32 32 28 25 24 24 26 26 26 25 25 25 26 25 24 25 25 25 25 24 24 24
28 30 32 32 33 34 35 36 36 37 39 41 42 42 41 40 39 39 39 38 37 37 37 36 36 36 35 34 33 32 32 33 34 36 38 40 41 41 39 37 36 35 34 34 34 34 36 37 37 37 38 39 39 38 37 36 35 35 35 35 33 32 33 33 32 30 26 24 24 26 27 27 27 26 26 26 26 26 26 26 26 25 23 24 25
25 27 29 30 32 33 34 34 34 35 36 38 39 39 38 37 37 37 37 37 37 37 37 37 38 38 37 36 35 34 33 33 33 34 35 37 39 41 40 39 38 37 36 35 35 35 36 38 38 38 39 40 40 39 39 38 37 37 36 35 34 32 32 33 33 31 28 25 25 26 27 27 27 26 26 27 27 28 28 27 27 25 24 25 25
24 27 29 31 33 33 33 33 33 34 35 36 37 36 36 36 35 35 35 36 36 36 37 37 38 38 38 37 37 36 36 34 34 34 34 34 36 39 40 41 40 40 38 37 36 36 37 38 38 38 39 40 40 40 40 40 39 38 38 37 35 33 32 33 34 32 30 27 26 26 27 28 28 27 27 28 29 29 29 28 27 26 25 25 26
27 29 31 32 32 32 33 34 35 36 37 37 36 35 35 34 34 34 34 34 35 35 36 36 37 37 38 38 37 37 37 36 35 35 34 34 35 37 38 40 41 41 41 39 39 38 38 38 38 38 40 42 42 41 41 41 40 39 39 38 36 35 34 34 34 33 31 29 28 28 28 28 29 29 29 29 30 30 29 28 27 27 26 26 26
30 30 30 31 31 33 35 37 38 39 39 38 37 35 34 33 33 32 32 33 33 33 34 35 36 36 37 37 37 37 37 36 36 35 35 35 35 36 36 38 40 41 42 41 41 40 40 40 39 39 41 43 43 42 42 41 41 40 39 39 38 36 36 35 35 35 34 31 30 29 29 29 29 30 30 30 30 29 28 28 28 28 26 26 26
31 31 32 33 35 37 38 39 40 41 40 39 37 35 34 33 32 31 31 32 32 33 34 34 35 36 37 37 38 37 37 36 36 35 35 35 36 36 36 36 38 40 42 42 42 42 41 41 41 41 42 43 44 44 43 42 42 41 40 39 38 38 37 37 37 37 35 33 32 31 30 30 29 30 30 30 30 30 29 29 28 27 26 26 26
34 35 36 38 40 41 42 41 42 42 41 39 36 34 33 32 31 31 31 32 32 33 34 35 36 36 37 37 37 37 37 36 35 35 34 35 36 37 37 37 37 39 41 42 43 44 43 43 43 43 44 44 44 44 45 44 43 42 41 40 40 40 39 39 39 38 37 36 35 33 32 32 31 31 31 32 32 31 29 28 28 27 26 27 27
38 39 41 42 43 43 43 43 43 42 41 39 36 34 32 31 31 32 32 33 34 34 35 36 37 37 37 37 37 37 36 36 35 35 34 34 36 37 38 38 38 39 40 42 44 45 45 45 44 44 45 45 44 43 45 46 45 44 42 41 41 42 41 41 40 40 39 39 37 35 34 34 34 33 33 33 32 31 29 29 29 29 28 28 28
41 42 44 44 44 44 44 44 43 41 39 38 36 34 32 32 32 32 33 35 36 36 37 38 38 38 38 37 37 37 37 36 36 36 35 35 35 38 39 39 40 40 40 42 44 45 46 46 46 45 45 46 45 44 45 47 47 45 43 43 43 43 43 43 42 41 41 41 39 37 36 35 35 34 33 32 31 32 32 31 31 30 29 29 29
44 45 45 44 44 45 45 44 42 39 37 37 36 35 33 33 33 33 34 35 37 38 38 38 38 37 37 37 37 37 37 37 36 37 37 36 36 38 40 40 41 41 41 42 43 44 46 46 46 46 45 46 47 46 45 47 48 47 45 44 44 44 44 44 43 42 42 42 40 38 37 36 35 34 34 33 33 34 33 33 32 31 31 30 29
45 45 44 44 44 45 44 43 41 38 37 36 36 35 35 34 34 34 35 35 36 37 37 37 37 36 37 37 37 38 38 37 37 37 37 37 37 39 41 42 42 42 42 42 43 43 45 46 47 47 46 46 46 46 46 47 48 48 47 46 45 44 44 44 44 43 42 42 41 40 39 37 35 35 35 35 35 35 34 35 34 33 32 31 30
44 44 44 44 43 43 42 40 39 38 37 36 36 35 35 35 35 35 36 36 36 36 36 36 36 36 37 37 38 38 38 38 38 38 37 37 37 39 41 43 43 43 43 43 43 43 43 45 46 47 47 46 46 46 46 46 47 48 49 48 47 46 46 46 45 44 43 43 44 43 40 38 36 36 35 35 36 36 37 37 35 34 33 32 30
43 43 43 43 42 40 39 39 38 37 37 36 35 34 34 34 34 35 36 36 36 36 36 37 37 37 37 38 38 39 39 39 38 38 38 37 36 37 40 42 44 44 43 43 43 43 43 44 45 46 47 46 45 45 44 44 45 47 49 50 49 47 47 47 47 45 44 45 46 45 42 39 38 36 35 36 38 38 39 38 36 34 34 33 31
42 42 42 42 40 39 38 38 38 38 37 36 35 34 33 33 33 34 35 36 36 36 37 37 38 38 38 38 39 39 39 39 38 38 38 37 37 37 39 41 43 44 43 43 43 43 44 44 44 45 46 46 45 44 43 44 44 45 48 50 50 48 48 48 47 46 44 43 44 44 42 39 37 36 36 38 39 40 40 39 36 34 34 35 34
41 41 41 41 39 38 38 38 38 37 36 35 34 33 33 33 33 33 35 35 35 36 36 37 37 38 38 38 39 40 39 38 37 36 36 37 38 37 38 40 43 44 43 43 43 43 44 44 44 44 45 45 44 43 42 44 45 46 47 48 48 49 49 48 47 46 44 44 44 43 42 40 38 37 37 39 40 42 43 40 38 37 37 37 36
41 41 41 40 39 38 38 38 38 36 35 34 34 33 33 33 33 34 35 36 35 35 35 36 36 37 38 38 39 39 38 36 35 35 35 36 38 38 38 39 42 43 43 42 42 43 43 44 44 44 44 44 43 41 41 43 45 47 47 45 45 48 49 48 47 46 45 45 45 43 42 42 40 39 40 42 43 44 43 40 39 39 38 38 38
41 40 40 39 39 39 38 37 37 36 35 34 34 34 34 34 34 35 36 36 36 35 35 35 36 37 37 37 37 37 37 35 35 35 35 35 37 38 38 39 41 43 42 41 41 42 43 43 43 43 43 43 41 40 40 41 43 47 47 44 43 46 48 47 46 47 47 47 45 45 45 44 43 42 44 45 45 44 43 40 38 38 39 39 38
40 40 40 39 39 38 37 36 35 35 35 35 35 35 35 35 35 35 35 36 36 36 35 36 36 35 35 35 35 35 35 35 34 35 34 34 36 37 38 39 41 42 41 40 40 41 42 42 42 41 41 41 40 40 41 41 42 45 46 44 44 45 45 45 45 46 47 48 47 46 46 45 44 44 45 45 45 45 43 40 39 39 40 41 40
41 40 40 40 39 38 36 36 35 36 36 36 37 37 36 36 35 35 35 35 35 36 36 36 36 35 34 34 34 34 34 34 33 33 34 34 34 35 37 39 40 40 40 39 39 40 41 41 40 39 39 39 39 40 41 41 42 43 44 44 43 43 42 42 42 42 45 48 47 46 46 45 45 45 45 45 45 45 43 41 41 41 42 44 43
41 40 40 39 38 37 36 36 37 37 37 38 38 37 36 35 35 34 34 34 35 35 35 35 35 34 34 34 34 32 32 32 32 32 33 33 33 34 35 37 38 39 38 37 37 37 38 38 37 36 36 37 38 39 40 40 40 42 43 42 40 39 39 40 41 42 45 47 47 47 47 47 47 47 46 45 45 44 44 42 41 41 43 45 45
41 40 39 39 38 37 37 37 37 37 37 37 37 36 34 33 33 33 34 34 35 35 34 33 34 34 34 34 33 31 30 31 31 31 32 31 31 32 33 34 35 36 36 35 35 35 35 35 35 35 35 36 37 38 39 38 38 40 41 39 37 36 38 40 41 42 44 45 45 46 47 48 47 47 46 45 44 43 42 39 38 40 43 44 43
40 40 39 38 38 37 37 36 36 35 35 35 35 35 33 32 32 32 33 34 34 33 32 32 33 33 32 33 32 30 29 30 30 30 30 30 29 29 30 31 33 34 34 33 32 32 32 33 34 34 35 36 37 37 38 37 37 37 37 36 36 36 38 41 42 42 43 43 43 43 44 45 45 45 45 45 44 42 40 38 39 43 44 43 42
39 39 38 37 36 36 35 35 33 33 33 33 33 33 32 31 31 30 31 32 32 31 31 32 33 33 31 31 30 29 29 30 29 27 27 27 26 26 28 29 31 32 33 31 29 29 31 32 33 34 35 36 37 36 37 36 35 34 34 34 36 37 39 40 41 41 40 41 41 41 41 41 41 42 43 45 44 43 41 40 41 43 43 42 42
38 37 36 35 35 34 34 33 31 31 30 31 31 31 31 30 29 29 29 29 29 30 31 31 33 33 31 29 29 29 29 28 26 25 24 24 24 24 25 27 28 30 30 29 27 27 29 30 32 33 34 35 36 36 35 35 34 33 34 35 36 37 36 36 37 38 38 37 38 39 39 39 40 41 43 44 44 44 43 43 43 44 44 43 41
36 36 35 34 34 34 34 32 30 29 28 29 30 30 29 29 28 28 27 26 27 29 30 31 32 32 31 30 30 29 27 24 22 22 22 22 22 22 23 24 25 27 28 27 25 26 27 29 30 32 33 34 34 34 35 35 34 34 35 36 37 35 33 31 32 34 34 34 34 36 38 39 40 41 41 41 43 45 45 45 44 44 43 42 42
36 35 35 35 35 34 33 31 29 28 27 27 27 28 27 28 28 26 25 25 26 27 29 30 30 29 30 30 29 26 23 21 20 19 19 20 21 21 22 22 22 23 25 25 25 25 26 28 29 31 32 33 33 33 34 35 35 35 36 36 35 33 31 30 31 32 33 33 34 35 36 37 39 39 39 40 42 45 46 46 48 49 48 46 45
36 36 36 35 34 33 31 29 28 27 26 25 25 25 25 25 25 24 23 24 26 27 28 29 29 29 30 30 27 23 20 19 19 19 18 19 20 21 22 21 21 22 23 24 24 25 25 27 29 29 30 31 32 33 33 33 34 34 34 34 32 30 28 29 30 31 32 33 33 34 34 36 38 40 41 43 45 47 47 47 48 46 43 43 45
35 35 34 32 30 29 28 27 27 26 25 24 24 24 23 23 23 22 21 23 25 27 28 28 27 27 29 28 25 22 19 18 19 18 18 18 19 20 21 21 20 21 22 23 24 25 26 27 28 29 29 30 31 32 32 31 31 31 32 32 31 29 29 29 29 30 31 32 32 33 35 37 38 38 40 42 43 42 39 37 37 34 28 27 30
33 31 29 28 26 26 25 25 24 24 24 23 22 21 21 20 21 21 21 22 24 25 26 25 26 28 29 25 22 21 19 16 16 16 16 17 18 18 19 20 20 21 21 22 24 25 26 27 27 27 28 27 27 27 27 28 29 29 29 30 30 29 28 28 28 29 29 30 30 29 31 31 29 28 29 29 29 28 25 23 23 19 13 11 13
30 28 25 24 24 24 23 23 22 22 22 22 22 21 18 16 17 19 21 22 24 24 24 24 27 29 27 22 19 19 17 15 14 14 14 15 15 16 17 18 19 20 21 21 23 24 24 24 25 25 26 26 25 25 25 26 27 28 28 29 28 28 27 27 27 26 27 26 24 23 23 21 19 20 21 19 19 22 23 19 15 11 10 12 14
27 25 23 23 22 22 22 22 21 21 21 20 20 20 18 15 14 15 18 21 23 22 23 24 26 26 25 21 18 17 16 14 13 12 12 12 12 13 15 16 17 19 20 21 21 21 21 21 22 23 24 23 22 21 22 23 23 23 25 26 26 25 25 25 25 24 23 21 20 19 19 17 16 16 16 14 14 17 21 21 20 19 20 20 18
25 23 23 23 22 22 21 20 20 19 19 18 18 18 17 15 13 14 16 19 20 21 23 25 25 23 22 20 17 15 14 13 12 11 11 11 11 11 13 15 16 18 19 19 20 20 19 19 20 21 21 20 18 17 17 18 19 20 21 22 22 22 22 22 21 21 19 18 18 19 18 17 16 15 13 12 12 13 16 19 19 17 16 14 12
23 22 23 23 22 21 20 19 18 17 17 17 16 16 15 14 14 15 16 17 18 21 23 23 23 22 20 17 15 13 12 12 12 11 11 10 9 9 10 12 14 16 17 18 19 19 19 19 19 20 19 19 17 16 16 17 17 18 18 17 17 18 18 18 18 18 18 18 19 18 17 15 14 12 10 9 9 10 11 12 10 9 9 8 8
22 21 21 21 21 19 18 17 16 15 14 15 15 14 14 14 13 14 16 17 18 19 21 21 22 22 20 15 11 10 10 11 11 11 10 9 9 8 7 8 10 11 13 14 15 16 17 17 18 19 18 17 15 14 15 16 15 14 14 14 15 17 18 18 18 18 18 18 17 16 14 13 12 11 10 10 10 10 9 7 6 5 5 5 5
20 20 20 19 18 16 15 14 12 12 13 13 13 13 14 13 12 14 16 17 17 18 18 19 20 20 18 14 10 9 10 10 9 9 9 8 7 6 4 3 4 6 8 9 11 12 13 13 14 15 16 15 13 14 15 15 15 14 14 13 15 17 17 17 17 17 16 15 14 13 12 12 12 12 12 12 11 10 10 9 8 8 7 6 6
19 19 19 17 15 14 13 11 11 11 12 12 12 13 13 11 11 14 16 16 16 16 16 16 17 17 16 13 9 9 10 7 5 6 8 7 5 4 2 1 3 5 7 8 10 10 10 10 10 12 14 15 16 16 16 17 17 17 17 16 16 17 16 16 15 14 13 13 12 11 11 11 12 11 11 9 8 9 11 12 10 9 8 7 7
19 19 18 16 14 13 11 11 10 10 11 10 10 12 13 12 12 14 15 15 15 14 14 15 16 16 15 11 8 9 10 7 3 3 4 3 3 2 1 4 5 5 7 9 9 9 10 11 12 12 14 16 17 18 19 19 19 19 18 18 17 16 15 14 14 13 11 10 9 9 9 9 8 8 7 7 8 9 11 11 9 8 7 8 8
18 18 17 15 13 11 11 11 10 9 9 9 8 9 11 12 13 13 14 14 13 13 13 14 15 16 15 11 7 6 8 7 5 3 2 1 1 3 3 4 5 5 7 11 15 15 17 20 21 22 22 22 22 22 21 20 20 19 17 16 15 15 14 13 11 10 10 9 8 8 8 8 7 7 7 7 6 6 7 7 7 7 8 9 10
16 16 15 14 12 11 11 11 10 9 9 9 8 8 9 11 11 12 13 13 12 12 13 13 13 15 14 10 8 6 6 5 5 6 7 8 9 10 11 13 16 18 20 24 26 26 27 28 28 27 25 24 22 21 20 19 18 16 14 12 11 11 10 9 8 7 7 7 8 8 7 6 6 6 6 7 7 6 6 6 7 8 9 10 12
15 14 14 13 12 11 10 9 9 9 10 9 9 8 8 10 10 11 11 10 9 11 12 12 13 14 13 12 11 8 9 16 21 24 25 25 25 25 24 25 27 28 28 28 27 26 27 27 25 23 21 20 19 18 16 14 12 11 9 8 7 6 6 5 5 6 6 6 6 5 5 6 6 6 6 6 6 6 7 8 8 9 10 10 11
13 12 12 11 11 10 9 9 8 9 10 10 9 8 8 8 8 9 9 8 8 10 11 12 13 12 11 15 19 22 28 32 33 32 31 30 30 30 29 28 28 27 26 25 24 22 21 19 18 17 17 17 16 15 12 10 9 7 7 6 6 6 6 5 5 4 4 4 5 6 7 7 6 6 6 6 7 8 8 9 10 11 11 12 13
10 11 11 11 10 10 8 8 8 9 10 9 8 7 6 6 6 6 7 7 9 11 10 12 14 14 18 25 29 30 31 31 28 27 26 25 24 25 25 24 23 22 20 19 17 15 13 13 13 14 15 14 13 11 8 7 6 5 5 5 5 5 5 4 3 3 4 5 6 7 7 6 6 6 6 7 8 9 10 11 12 13 13 14 15
10 9 9 10 10 9 8 8 9 9 8 6 4 2 3 4 5 6 8 9 11 11 10 13 16 18 20 25 27 26 25 25 24 23 23 22 21 21 20 19 18 17 16 14 13 12 12 12 11 11 9 8 6 5 4 3 2 2 2 3 3 3 4 4 4 5 5 5 5 5 6 6 6 6 7 8 9 10 11 11 12 13 14 15 16
9 9 9 9 9 8 7 7 7 5 2 1 1 4 7 7 7 9 12 13 13 14 14 16 17 18 19 22 23 23 24 26 25 23 22 22 21 20 19 17 16 15 15 14 13 11 10 9 7 6 4 3 2 2 2 2 2 2 2 2 3 4 5 5 4 4 3 3 3 3 4 5 6 7 9 10 11 12 12 13 13 14 14 15 16
12 11 10 9 7 6 5 4 4 4 4 5 6 8 10 10 10 14 16 18 19 19 20 20 20 20 22 24 26 26 27 27 27 25 23 21 20 19 19 17 16 14 13 12 11 9 8 7 6 5 4 3 3 3 4 5 5 5 5 5 6 6 5 4 3 2 1 2 3 4 5 6 7 8 8 9 9 9 9 9 10 11 11 12 12
16 16 16 16 15 13 12 11 10 10 9 10 12 14 14 14 16 19 22 22 23 23 22 22 23 24 25 26 26 25 24 23 22 20 17 16 15 16 15 14 12 11 11 11 11 10 8 7 6 6 6 6 7 7 8 8 8 9 9 9 8 7 5 4 3 3 2 2 2 2 1 1 2 2 2 3 4 5 6 7 8 9 9 10 11
16 16 16 18 18 18 17 15 14 14 13 15 18 20 20 21 22 24 25 25 25 24 24 24 25 25 24 23 21 19 18 17 17 16 14 13 12 13 13 13 13 13 14 14 14 14 14 13 13 12 12 13 14 14 14 14 14 13 13 12 10 9 7 6 6 5 5 4 4 4 3 2 1 1 2 3 4 5 6 7 8 8 9 10 10
16 15 15 15 16 17 18 18 18 20 22 24 25 26 26 26 27 28 27 27 26 25 24 24 23 22 21 20 18 17 15 15 15 15 15 15 15 15 15 16 17 18 18 19 20 21 21 21 21 21 21 21 21 20 19 19 18 17 15 14 13 11 10 9 7 6 5 3 2 1 0 1 2 3 4 4 5 6 6 7 8 9 9 10 11
22 21 20 19 20 21 23 24 25 27 29 30 30 30 29 29 30 29 28 26 25 23 22 21 20 19 19 19 18 18 18 18 18 18 19 20 20 20 21 21 22 23 23 24 24 25 24 24 24 23 22 21 20 19 18 17 16 15 13 12 10 9 7 5 4 3 2 1 2 2 2 3 3 4 5 5 6 7 8 8 9 9 10 11 12
26 26 26 26 25 26 26 27 28 30 31 31 31 30 29 29 28 26 24 22 22 21 20 19 19 20 21 22 22 23 23 24 24 24 24 25 25 25 25 25 25 25 24 24 23 23 22 21 20 20 19 18 17 16 15 14 13 11 10 9 7 6 5 4 3 3 3 3 3 4 4 5 5 6 6 7 7 7 8 8 9 10 10 11 12
Wind_Direction
292 290 290 291 292 293 293 294 294 295 295 295 295 293 291 289 287 286 285 284 283 282 281 281 281 281 280 280 277 274 270 267 264 262 261 261 262 261 260 259 258 259 258 257 255 253 251 250 250 249 248 248 247 244 241 241 242 244 246 249 252 255 258 259 260 260 258 255 254 253 252 252 253 254 256 259 260 262 265 267 267 267 270 275 280
290 289 289 290 290 290 291 290 290 291 293 294 294 293 291 289 287 286 285 284 284 283 283 283 284 283 283 282 280 278 275 272 269 266 263 262 261 261 260 259 258 257 256 254 252 250 250 249 248 248 248 248 248 245 243 241 241 242 243 246 248 252 256 258 258 258 255 252 252 252 251 252 254 255 256 258 259 260 263 264 264 266 270 276 280
288 287 286 286 288 289 290 290 291 293 295 296 296 294 292 289 288 287 285 284 283 283 283 282 283 284 284 284 284 282 279 276 273 270 267 264 262 260 258 257 256 255 254 253 250 248 248 249 248 247 248 249 248 247 244 242 241 242 242 243 244 247 251 254 255 255 254 251 249 248 249 250 252 253 255 256 256 258 260 262 264 267 272 276 279
285 284 284 285 288 290 293 296 299 300 301 301 300 296 293 290 289 288 286 284 282 282 281 281 282 283 283 284 283 282 280 277 274 272 270 268 265 261 258 255 255 254 253 253 251 248 247 248 248 248 247 247 248 248 247 244 243 242 243 243 243 243 246 250 252 254 253 251 248 246 246 248 250 251 252 252 254 257 258 260 263 267 271 275 279
286 286 286 288 291 295 300 304 306 307 307 306 303 299 293 291 289 289 288 286 284 283 282 282 282 281 282 282 281 280 280 278 275 272 270 269 267 264 260 256 254 254 253 251 250 249 248 247 247 247 246 245 245 246 247 246 245 244 244 244 244 244 244 247 249 251 251 250 248 246 245 246 248 250 250 250 252 255 257 259 263 266 270 275 281
292 292 294 298 301 305 308 310 310 310 310 309 306 301 295 291 289 289 289 288 286 285 284 282 282 281 281 281 281 280 280 278 276 274 271 269 268 267 264 260 256 254 252 250 249 249 249 249 247 246 246 245 244 242 242 243 244 244 245 245 246 246 245 246 247 248 249 248 247 247 246 245 247 248 248 248 250 253 256 258 261 265 270 277 282
299 302 305 309 312 313 312 311 310 310 310 308 306 302 296 292 291 290 289 288 287 286 285 284 283 282 281 281 281 281 281 279 277 275 272 270 268 267 266 263 259 255 253 251 249 248 248 248 247 246 246 247 246 243 240 239 240 241 243 244 245 246 246 246 247 247 248 247 246 246 246 246 246 246 247 248 249 251 254 257 261 266 272 277 278
306 309 311 314 314 313 311 310 309 309 308 308 306 303 298 294 291 290 289 288 287 287 287 286 285 283 282 282 282 281 281 280 278 275 272 270 269 267 266 264 261 257 253 251 249 248 247 247 247 246 245 247 248 245 241 238 237 238 240 241 241 243 245 246 247 248 248 247 245 245 245 245 245 245 246 248 251 254 256 259 262 266 269 272 272
308 310 310 311 311 309 308 307 307 307 307 307 306 304 300 296 292 290 289 289 289 288 288 287 285 284 283 282 282 281 280 280 280 277 273 269 267 266 265 264 262 259 254 251 249 248 247 246 246 246 246 247 248 246 242 239 238 238 237 238 239 240 242 244 246 247 247 246 245 244 244 244 244 245 246 249 253 256 257 257 258 261 265 267 269
306 306 306 307 307 307 306 305 305 305 305 305 304 303 300 296 292 290 290 290 290 290 289 287 287 286 284 283 282 281 281 281 280 279 276 271 267 265 263 262 261 259 256 252 249 247 247 246 245 245 245 246 247 246 244 241 239 239 238 237 237 238 239 241 243 244 246 246 245 245 245 245 246 247 250 252 254 255 254 254 255 258 261 264 266
302 302 303 305 305 305 304 304 304 304 303 303 302 301 298 296 294 292 291 291 291 290 290 290 289 288 286 284 283 282 282 281 280 278 276 273 269 266 263 262 260 259 257 253 250 247 246 246 245 244 244 245 246 246 245 242 240 239 239 238 237 237 238 239 240 242 243 245 246 246 247 247 248 249 251 251 252 253 254 254 255 257 259 263 266
298 300 302 303 303 303 303 304 303 302 302 302 301 299 297 295 294 293 292 292 291 291 291 291 290 289 287 285 283 282 281 281 280 278 276 274 270 267 264 262 260 258 257 254 252 248 246 245 245 245 244 245 246 246 246 244 240 239 239 239 238 238 238 238 240 240 241 244 246 247 247 247 248 249 250 251 252 254 255 255 255 257 259 262 264
297 299 301 301 301 302 303 303 302 302 302 302 300 298 296 295 293 292 292 292 291 291 291 291 290 289 287 285 283 282 281 280 279 278 276 273 270 267 265 263 261 259 257 255 252 250 247 245 245 245 244 245 246 246 246 245 242 240 239 239 238 237 237 238 239 240 240 243 246 246 246 246 246 247 249 251 253 253 254 255 255 257 260 262 264
298 299 300 300 301 302 303 302 301 301 301 301 300 298 297 295 294 293 293 292 292 292 291 291 290 290 289 287 285 283 282 282 281 278 275 271 267 265 263 262 261 259 257 256 253 250 248 246 246 246 245 245 245 246 246 246 245 243 242 240 239 237 237 238 238 239 239 241 244 246 245 244 246 248 248 249 250 251 253 254 254 257 260 262 261
300 300 300 301 302 303 302 302 301 301 301 299 298 298 298 297 296 296 295 294 293 293 292 292 291 290 289 288 286 285 284 283 281 278 274 270 266 262 260 260 260 259 258 256 254 250 248 247 246 246 246 245 245 245 245 246 246 246 244 242 241 240 239 239 240 241 242 244 247 249 249 247 248 249 249 249 250 251 252 253 253 254 255 256 255
301 301 301 301 302 302 302 303 302 301 300 298 298 298 298 298 298 297 296 295 295 294 293 293 292 291 290 288 287 287 286 284 281 278 274 271 267 262 259 258 259 259 258 256 254 251 248 247 247 247 247 246 246 246 245 245 246 247 247 245 243 241 240 240 242 244 245 246 248 250 251 248 246 248 249 250 249 249 251 252 253 252 252 253 254
300 300 300 300 301 302 303 303 302 300 299 298 297 298 298 298 298 297 296 295 295 295 295 294 293 291 290 288 287 286 284 282 279 276 273 270 268 264 259 257 257 258 257 256 254 251 248 247 247 248 247 246 246 247 246 246 246 247 248 248 246 243 241 240 241 243 245 246 247 247 247 246 245 245 246 246 248 249 250 252 253 253 253 253 253
299 298 299 300 301 302 302 301 300 299 298 297 298 298 299 299 298 297 296 295 295 295 295 294 293 292 290 289 286 284 283 281 279 277 272 269 268 266 261 257 256 257 257 255 253 251 248 247 247 248 248 247 246 247 247 247 247 247 248 248 247 245 244 243 243 243 244 246 245 244 245 245 245 245 244 246 250 251 251 253 253 254 254 254 254
298 299 300 300 301 301 299 298 298 298 298 298 298 298 299 299 299 297 296 295 295 295 295 295 294 293 292 290 288 285 283 283 282 280 275 269 266 266 263 258 255 255 255 254 252 250 247 246 246 248 249 248 247 248 247 246 247 247 246 246 245 245 245 247 248 246 244 244 245 245 247 248 248 248 247 248 250 252 252 253 253 255 257 256 253
299 299 300 300 300 299 297 297 297 297 298 299 298 298 298 299 299 298 296 295 295 295 295 295 295 294 294 293 290 287 285 285 283 280 276 271 268 266 263 258 255 254 253 252 251 249 247 246 245 247 249 248 248 249 247 246 246 247 245 244 244 246 247 248 249 248 244 243 244 246 248 249 250 250 249 249 251 253 253 252 253 257 259 256 252
299 299 300 300 299 298 298 297 296 297 298 298 298 297 297 298 298 297 296 295 296 296 296 296 296 296 296 296 293 289 287 286 284 280 276 272 270 268 264 258 254 252 251 250 249 248 246 246 245 246 247 247 248 249 247 246 246 247 245 244 244 247 247 248 249 248 246 244 244 245 245 247 249 251 251 250 251 253 253 252 253 257 258 256 252
298 298 300 300 300 300 299 297 297 297 298 297 296 296 296 297 298 297 296 296 297 298 298 298 299 299 299 299 295 290 288 288 285 281 277 274 270 267 263 256 251 250 250 249 248 247 246 245 245 245 245 245 246 248 248 246 246 246 245 244 244 245 246 247 249 249 249 249 248 247 246 247 249 253 254 254 254 254 254 253 254 256 256 254 253
297 298 300 301 302 302 300 298 298 297 296 295 294 295 296 297 297 297 297 297 298 298 299 301 302 302 301 300 297 292 290 290 288 283 279 275 269 264 259 254 249 248 249 249 248 247 245 244 243 243 244 244 245 246 246 246 247 247 245 243 243 244 245 246 247 248 250 251 250 248 248 247 248 251 255 256 256 255 255 254 254 255 254 253 256
297 298 300 301 302 302 300 299 298 296 294 293 293 295 297 298 299 298 298 297 297 299 301 303 304 303 303 302 299 295 293 292 289 283 279 274 268 260 255 251 247 246 247 248 247 245 244 243 243 243 244 244 245 245 245 245 247 248 245 242 242 244 246 247 247 248 250 252 252 250 248 247 248 251 254 255 254 252 252 251 252 255 255 254 255
297 298 300 301 302 301 300 300 297 295 294 294 294 296 298 299 299 298 297 297 298 300 303 306 307 307 308 307 304 300 297 295 290 283 279 273 266 259 253 248 245 245 246 246 245 245 244 243 243 244 245 245 245 244 243 244 246 246 245 243 244 246 247 246 245 245 246 247 249 251 251 249 250 251 252 253 253 252 251 251 252 253 253 254 254
298 299 300 301 301 300 299 298 296 294 294 294 294 296 298 299 299 298 297 298 300 302 305 307 309 311 313 312 308 304 300 295 289 285 280 273 265 258 252 248 246 245 246 245 244 244 245 245 245 246 246 244 244 243 242 242 243 244 245 245 247 251 254 251 249 249 250 250 251 252 253 252 252 251 250 249 250 250 250 251 252 252 252 254 249
299 300 301 301 301 299 298 296 294 293 293 293 293 294 297 298 297 297 298 300 302 305 308 310 310 312 314 314 310 306 301 294 288 284 280 272 265 257 250 246 245 245 245 244 243 243 244 246 247 247 246 244 243 243 242 241 241 243 245 247 249 254 258 258 258 259 260 258 256 255 255 256 257 256 253 252 252 252 252 252 251 250 250 247 233
301 302 303 302 301 299 297 295 294 294 293 292 292 294 295 295 295 295 299 302 303 307 312 314 312 311 315 316 312 305 297 291 285 281 274 268 264 258 251 245 243 244 244 242 242 243 244 246 248 248 246 244 242 242 241 241 242 244 245 247 250 254 258 258 258 260 261 260 258 258 259 261 261 260 257 254 249 243 240 239 235 228 224 219 210
302 304 304 304 302 300 297 295 295 294 294 294 293 294 294 294 293 294 298 301 303 308 315 317 313 312 316 318 312 303 297 292 290 284 276 269 264 259 254 248 243 244 244 243 244 244 245 246 247 246 243 241 241 242 241 239 241 243 245 247 250 254 258 259 257 257 257 256 255 255 257 258 259 257 252 245 234 222 213 207 201 190 180 182 188
304 306 307 306 304 301 299 297 296 295 295 295 294 294 293 292 292 295 300 303 305 310 317 319 316 316 317 316 309 304 300 297 296 293 285 276 267 259 254 250 246 245 245 244 244 245 246 248 247 245 241 241 243 245 243 239 239 241 243 246 250 253 256 256 254 252 252 254 255 256 258 261 262 257 247 237 227 217 203 188 183 177 163 163 179
306 308 308 307 306 304 301 300 298 296 295 294 294 293 291 288 288 293 301 307 308 311 316 319 319 318 316 312 306 302 301 300 299 298 293 285 274 262 253 248 246 245 244 244 244 245 247 249 246 240 238 240 245 247 245 241 239 239 240 244 249 251 252 252 251 251 253 256 259 260 259 257 252 245 238 227 219 217 212 203 204 218 238 254 252
307 309 309 308 308 306 304 303 300 296 294 293 292 292 291 288 284 290 301 308 309 309 314 318 320 319 315 311 309 306 303 303 303 300 296 290 279 268 258 250 245 243 241 241 244 245 245 245 242 237 236 242 249 252 248 244 241 240 242 245 249 252 252 252 250 248 249 252 253 247 241 234 224 220 222 217 211 212 215 222 237 252 262 269 268
308 309 309 309 308 306 304 303 300 295 294 292 290 291 293 292 291 297 308 311 310 311 317 322 323 321 315 313 316 316 309 305 305 306 306 302 289 276 267 257 249 244 240 239 243 245 243 240 237 234 235 241 247 248 246 243 241 240 243 246 251 253 253 249 243 237 233 234 231 225 221 217 212 210 212 214 217 221 226 232 240 246 246 241 227
309 308 308 307 307 305 304 302 298 295 293 291 291 292 292 292 297 307 314 316 316 320 325 329 330 328 321 317 319 318 312 309 308 311 316 315 302 287 274 261 251 246 243 240 242 246 245 241 238 235 233 236 239 239 238 240 241 241 242 245 249 248 244 237 228 219 214 213 210 207 205 202 199 198 198 200 206 213 220 225 228 225 216 203 186
307 307 306 305 305 304 303 301 299 297 293 292 294 293 290 292 301 311 317 322 326 329 333 335 338 339 335 329 325 320 313 309 308 312 321 322 312 304 290 263 242 235 235 235 237 241 241 238 235 232 229 231 234 236 239 244 244 239 237 239 239 235 228 220 211 202 199 197 193 190 190 187 180 178 182 192 202 204 198 189 177 167 158 148 144
308 308 308 306 304 302 302 301 299 296 292 293 296 295 294 300 311 316 319 325 331 336 339 340 343 348 348 350 354 344 324 310 307 317 328 327 314 308 304 267 218 205 209 214 216 220 222 224 229 229 226 225 227 230 230 228 219 208 201 203 207 204 197 192 186 181 181 182 179 177 178 180 182 191 202 211 212 196 171 153 147 149 150 156 169
312 313 313 310 305 301 300 299 297 295 295 298 300 297 296 306 319 320 320 325 331 336 337 336 340 349 352 353 360 356 341 331 323 323 328 329 317 294 263 191 156 158 169 175 181 189 194 199 216 223 214 203 197 192 185 180 174 168 164 164 169 170 167 165 165 165 168 172 174 180 189 197 203 212 221 224 211 185 165 156 155 160 170 182 195
314 315 314 312 308 304 299 296 295 295 298 302 302 299 303 318 328 325 323 327 332 337 339 337 341 352 357 356 357 356 354 2 20 350 330 337 343 347 109 125 130 149 165 166 165 172 174 168 164 163 160 156 149 141 136 134 135 136 137 141 144 146 148 151 154 158 166 175 180 189 202 212 218 220 217 209 198 184 171 164 164 173 188 201 213
315 315 315 312 309 305 299 295 294 295 298 300 297 297 310 322 327 326 328 334 341 348 348 344 348 354 355 357 11 15 5 7 18 15 7 47 41 42 79 114 124 130 134 129 126 129 132 131 128 126 125 123 121 120 121 122 124 125 127 132 138 144 149 153 159 167 178 187 192 199 207 212 213 208 197 184 172 162 158 162 173 192 208 218 226
314 317 317 313 306 299 294 295 298 300 299 297 289 292 308 318 323 330 336 341 350 356 353 354 360 0 0 16 45 41 16 25 66 86 96 105 106 103 109 117 117 113 111 111 111 112 115 116 117 119 120 120 121 126 132 135 135 135 135 137 144 151 155 155 160 171 182 189 195 200 201 194 181 167 153 146 147 156 173 193 208 218 224 228 232
314 318 318 314 308 302 297 299 303 302 299 293 282 282 301 317 328 338 341 343 356 3 3 7 7 1 5 27 43 54 81 93 94 92 92 93 95 96 98 102 105 106 107 108 109 110 112 114 116 119 121 124 127 128 129 128 127 126 125 124 126 133 139 144 156 169 179 185 183 168 148 136 135 141 149 160 175 191 201 210 217 222 226 229 232
314 317 318 315 311 305 300 302 306 305 304 298 284 281 302 326 340 345 343 351 11 17 15 18 16 14 36 64 76 92 101 97 90 86 85 86 87 90 92 95 98 101 104 106 108 110 113 118 123 125 125 124 122 116 110 104 100 100 107 115 120 129 144 156 166 168 162 149 132 124 128 136 147 162 177 189 201 211 220 229 237 242 247 251 254
322 318 318 317 314 309 308 312 311 309 308 302 289 289 314 335 344 348 356 18 35 35 35 43 47 55 76 88 92 96 98 95 88 87 87 88 91 96 99 100 101 104 106 107 106 106 109 113 117 116 111 106 103 99 93 90 92 99 113 124 131 143 152 152 140 121 113 113 119 131 147 163 178 193 207 217 227 235 243 250 254 255 256 259 261
333 328 325 326 326 326 325 320 311 307 303 295 289 324 26 24 12 16 35 53 57 56 63 73 73 75 87 97 101 101 102 102 98 94 92 94 97 101 102 102 103 104 106 104 101 98 97 98 101 102 99 97 97 93 84 79 88 108 128 135 132 130 125 115 101 100 108 121 137 154 172 188 201 212 221 230 238 245 249 252 252 253 255 258 263
354 349 341 335 332 331 333 334 331 328 322 295 77 89 94 87 62 56 66 72 73 72 75 77 76 78 87 97 100 101 102 103 100 97 96 97 97 96 97 99 101 101 101 101 99 95 91 91 93 91 86 85 84 77 76 93 111 121 126 117 100 93 96 101 105 111 122 140 164 190 208 221 232 241 246 250 253 254 255 255 256 258 261 263 267
36 31 23 14 3 356 4 27 51 74 94 103 101 101 102 95 81 77 79 78 75 74 74 72 73 78 83 87 89 88 88 88 88 88 89 91 93 94 94 94 95 95 94 94 95 94 93 91 87 74 67 72 80 83 89 94 96 91 83 78 77 77 78 79 77 59 345 305 293 285 276 270 267 264 262 260 260 259 259 259 259 261 264 267 270
57 57 56 56 59 63 67 69 71 75 84 97 103 102 98 92 88 87 85 81 78 78 79 79 81 84 85 84 83 81 79 77 78 79 80 84 90 93 91 87 85 81 77 77 84 89 91 90 84 74 72 78 83 86 87 86 84 82 79 75 72 68 60 51 36 14 354 339 324 305 275 243 238 234 233 240 247 252 258 263 266 269 274 278 281
61 65 68 68 69 71 72 68 65 68 78 90 96 96 94 93 92 91 88 85 85 85 86 85 86 87 87 86 85 83 80 77 76 77 79 82 85 86 85 84 84 83 80 81 83 85 86 87 87 86 85 85 85 86 86 85 83 82 82 81 80 80 81 81 82 84 87 91 96 100 103 108 126 200 245 260 266 269 273 277 280 284 287 290 291
62 70 78 79 77 76 76 77 81 87 91 94 95 94 94 94 93 91 91 91 91 90 89 87 85 83 84 85 87 90 91 90 87 86 86 86 87 88 88 87 86 85 85 84 84 85 86 87 87 86 86 85 85 85 84 84 84 84 85 86 87 87 87 86 87 87 88 86 82 72 322 284 279 277 276 278 279 282 286 291 296 300 302 302 302
73 78 83 84 83 83 84 85 87 90 91 92 92 93 92 92 92 93 93 93 92 90 87 85 82 80 79 80 82 86 88 90 91 90 89 88 87 87 86 86 86 86 86 86 86 86 86 85 84 84 83 82 82 81 81 81 81 81 81 81 80 79 78 75 71 63 44 9 341 318 306 302 300 299 300 303 306 310 313 315 315 315 313 311 310
77 81 84 86 87 88 88 88 88 89 91 93 93 93 93 93 93 93 92 89 86 84 83 82 82 81 81 82 84 85 87 88 88 88 88 87 87 86 86 86 86 85 84 83 82 81 80 79 78 78 77 76 76 76 75 74 74 73 72 71 69 65 60 50 37 24 10 355 344 336 330 327 323 322 323 324 323 322 321 319 317 316 315 314 312
Height
3144 3143 3142 3140 3140 3138 3137 3135 3133 3131 3128 3126 3124 3123 3121 3120 3118 3117 3116 3115 3114 3113 3112 3112 3112 3113 3113 3112 3112 3112 3112 3111 3111 3111 3111 3111 3112 3113 3115 3115 3115 3116 3117 3118 3118 3119 3120 3121 3123 3125 3127 3127 3128 3129 3130 3131 3132 3133 3134 3135 3136 3137 3138 3139 3140 3142 3145 3146 3147 3147 3147 3148 3148 3149 3149 3149 3150 3151 3151 3150 3150 3150 3151 3151 3151
3141 3140 3138 3137 3136 3135 3134 3132 3130 3127 3124 3122 3119 3118 3116 3115 3114 3112 3111 3111 3110 3108 3108 3108 3107 3107 3107 3108 3108 3107 3107 3107 3107 3106 3106 3106 3107 3108 3109 3110 3111 3112 3112 3112 3113 3114 3115 3116 3118 3120 3122 3122 3124 3125 3126 3128 3128 3129 3130 3130 3132 3134 3135 3135 3136 3138 3140 3142 3143 3143 3144 3144 3144 3145 3145 3146 3146 3147 3147 3147 3147 3147 3147 3147 3147
3138 3137 3136 3135 3133 3132 3130 3128 3126 3123 3120 3118 3115 3113 3112 3110 3109 3108 3107 3107 3106 3105 3104 3104 3103 3103 3103 3103 3103 3103 3103 3103 3102 3102 3102 3102 3102 3102 3103 3105 3106 3107 3107 3108 3109 3109 3110 3111 3113 3115 3116 3117 3119 3121 3122 3123 3124 3125 3126 3127 3128 3129 3131 3132 3132 3133 3135 3137 3138 3139 3140 3140 3140 3141 3142 3142 3142 3143 3143 3143 3143 3144 3144 3144 3144
3136 3134 3133 3132 3130 3128 3126 3124 3121 3119 3116 3114 3111 3109 3108 3107 3106 3104 3103 3103 3102 3101 3101 3100 3099 3099 3098 3098 3098 3098 3097 3098 3098 3097 3097 3097 3097 3097 3098 3099 3100 3101 3102 3103 3104 3105 3105 3106 3108 3110 3111 3111 3113 3116 3117 3119 3120 3121 3122 3123 3124 3125 3126 3127 3128 3130 3131 3132 3133 3135 3135 3136 3137 3138 3138 3138 3139 3139 3139 3139 3140 3140 3140 3141 3141
3133 3131 3130 3128 3126 3124 3121 3119 3116 3114 3112 3110 3108 3106 3104 3103 3102 3101 3100 3098 3098 3097 3097 3096 3095 3094 3094 3093 3093 3093 3093 3092 3092 3092 3092 3092 3092 3092 3092 3093 3095 3096 3097 3098 3099 3100 3100 3101 3102 3104 3105 3105 3107 3110 3112 3114 3116 3117 3118 3119 3120 3121 3122 3123 3124 3126 3126 3127 3129 3130 3131 3132 3133 3134 3134 3135 3135 3135 3136 3136 3136 3137 3137 3138 3138
3129 3127 3125 3123 3121 3119 3117 3114 3112 3109 3107 3105 3103 3102 3100 3099 3098 3097 3096 3094 3093 3093 3092 3091 3091 3090 3089 3089 3088 3088 3088 3087 3087 3087 3087 3087 3087 3087 3087 3088 3089 3090 3091 3092 3094 3094 3095 3096 3097 3098 3099 3099 3101 3103 3106 3108 3111 3112 3114 3115 3117 3117 3118 3119 3120 3121 3122 3123 3125 3126 3127 3128 3129 3129 3130 3131 3131 3132 3132 3132 3133 3134 3134 3135 3135
3125 3123 3121 3119 3117 3115 3112 3110 3108 3105 3103 3102 3100 3098 3096 3095 3094 3093 3091 3090 3089 3088 3088 3087 3086 3085 3084 3084 3083 3083 3083 3082 3082 3082 3082 3083 3082 3082 3082 3082 3083 3084 3085 3086 3088 3089 3089 3090 3091 3093 3093 3094 3096 3098 3099 3101 3104 3106 3109 3111 3112 3113 3113 3114 3115 3116 3118 3119 3120 3121 3122 3123 3124 3125 3126 3126 3127 3127 3128 3129 3129 3130 3131 3131 3131
3120 3118 3116 3114 3112 3110 3108 3106 3104 3101 3099 3097 3096 3094 3092 3091 3089 3088 3087 3086 3085 3085 3083 3083 3082 3081 3080 3079 3078 3078 3078 3077 3077 3077 3077 3078 3077 3077 3077 3077 3077 3078 3079 3080 3081 3082 3083 3084 3085 3087 3088 3089 3091 3093 3094 3096 3098 3100 3103 3105 3107 3108 3109 3110 3111 3112 3113 3115 3115 3117 3118 3119 3119 3120 3121 3122 3122 3123 3124 3125 3126 3126 3127 3127 3127
3115 3114 3112 3110 3108 3106 3103 3101 3099 3097 3095 3093 3091 3089 3088 3086 3085 3084 3083 3082 3081 3080 3079 3078 3076 3076 3075 3074 3073 3073 3072 3072 3072 3072 3072 3072 3072 3071 3071 3071 3071 3072 3073 3073 3075 3076 3077 3078 3079 3081 3082 3084 3085 3087 3089 3091 3092 3094 3097 3099 3101 3102 3104 3105 3106 3108 3109 3109 3111 3112 3113 3114 3115 3116 3117 3117 3119 3120 3121 3121 3122 3122 3123 3123 3123
3111 3109 3107 3105 3103 3101 3098 3096 3094 3092 3090 3089 3087 3085 3084 3082 3081 3080 3079 3077 3076 3075 3074 3072 3071 3071 3070 3069 3068 3067 3067 3067 3067 3067 3066 3066 3066 3065 3065 3065 3065 3065 3066 3067 3068 3069 3071 3072 3073 3075 3077 3078 3080 3081 3083 3085 3087 3089 3091 3093 3095 3096 3098 3100 3101 3103 3104 3105 3106 3107 3108 3109 3111 3112 3113 3115 3116 3116 3116 3116 3117 3118 3119 3119 3119
3107 3104 3102 3101 3098 3096 3093 3091 3089 3087 3086 3084 3083 3081 3079 3078 3077 3076 3074 3073 3072 3070 3068 3067 3066 3065 3064 3063 3063 3062 3062 3062 3062 3061 3061 3061 3061 3060 3059 3059 3059 3059 3060 3060 3061 3063 3065 3066 3067 3069 3071 3072 3073 3076 3078 3080 3082 3084 3086 3088 3089 3091 3093 3094 3096 3098 3099 3100 3102 3103 3104 3105 3107 3109 3110 3111 3111 3111 3112 3112 3113 3114 3114 3115 3115
3102 3100 3098 3096 3094 3091 3089 3086 3084 3083 3081 3080 3078 3076 3075 3073 3072 3071 3069 3068 3066 3065 3063 3062 3061 3060 3059 3057 3057 3056 3056 3056 3056 3055 3055 3055 3055 3054 3052 3052 3052 3052 3053 3054 3055 3057 3058 3060 3061 3063 3065 3066 3068 3070 3072 3074 3076 3079 3081 3082 3084 3086 3087 3089 3091 3092 3094 3096 3097 3098 3099 3101 3103 3105 3105 3107 3107 3107 3107 3107 3107 3108 3109 3110 3111
3098 3096 3094 3092 3089 3087 3084 3082 3080 3078 3077 3075 3073 3072 3070 3069 3067 3066 3064 3063 3061 3059 3058 3057 3055 3054 3053 3052 3051 3050 3050 3050 3050 3049 3049 3048 3048 3047 3046 3046 3045 3046 3047 3048 3049 3051 3052 3054 3055 3057 3059 3061 3062 3064 3066 3069 3071 3073 3074 3076 3078 3080 3081 3083 3085 3086 3089 3090 3091 3092 3094 3096 3097 3099 3101 3102 3103 3102 3102 3102 3102 3103 3104 3106 3107
3094 3092 3089 3087 3085 3082 3080 3078 3075 3074 3072 3070 3068 3067 3065 3064 3062 3061 3059 3057 3056 3054 3053 3051 3050 3049 3047 3046 3045 3044 3044 3044 3044 3043 3042 3042 3042 3041 3040 3039 3039 3039 3041 3042 3043 3045 3046 3048 3049 3051 3053 3055 3057 3059 3061 3064 3065 3067 3069 3070 3072 3074 3076 3077 3079 3081 3083 3085 3085 3086 3089 3091 3092 3094 3096 3096 3096 3096 3097 3097 3098 3098 3100 3101 3102
3089 3087 3084 3082 3080 3078 3075 3073 3071 3069 3068 3066 3064 3062 3061 3059 3058 3056 3054 3052 3050 3049 3047 3046 3044 3043 3042 3040 3039 3038 3037 3037 3037 3036 3036 3035 3035 3034 3034 3033 3032 3033 3034 3036 3037 3039 3041 3042 3043 3045 3047 3050 3052 3054 3057 3059 3060 3062 3063 3065 3068 3070 3070 3072 3074 3077 3079 3081 3082 3083 3086 3087 3088 3090 3090 3090 3091 3091 3091 3093 3094 3093 3094 3095 3096
3084 3081 3078 3077 3075 3073 3071 3068 3066 3064 3063 3061 3059 3058 3056 3054 3053 3051 3049 3047 3045 3044 3042 3040 3039 3037 3036 3035 3033 3031 3031 3031 3031 3030 3029 3029 3028 3028 3027 3027 3026 3026 3027 3029 3031 3033 3035 3036 3038 3040 3042 3044 3047 3050 3052 3053 3055 3056 3057 3060 3063 3065 3066 3068 3070 3072 3075 3076 3078 3080 3082 3083 3084 3084 3085 3085 3085 3084 3084 3087 3089 3089 3089 3090 3091
3079 3076 3074 3072 3070 3068 3066 3064 3061 3059 3058 3056 3054 3053 3051 3050 3048 3046 3043 3042 3040 3039 3037 3035 3034 3032 3030 3029 3027 3026 3025 3025 3025 3024 3023 3023 3021 3021 3021 3021 3020 3020 3021 3023 3025 3026 3029 3030 3032 3034 3036 3039 3043 3045 3047 3048 3049 3050 3052 3055 3058 3059 3061 3064 3066 3067 3069 3071 3072 3075 3076 3077 3078 3078 3078 3079 3079 3079 3079 3081 3084 3084 3084 3085 3086
3073 3071 3069 3067 3065 3063 3061 3059 3056 3055 3053 3051 3050 3048 3046 3045 3043 3041 3038 3036 3035 3034 3032 3030 3028 3027 3025 3023 3022 3020 3019 3019 3019 3018 3017 3017 3016 3015 3015 3015 3014 3013 3015 3017 3019 3020 3023 3025 3027 3029 3031 3034 3038 3040 3041 3043 3044 3045 3046 3050 3053 3053 3056 3059 3061 3062 3063 3065 3066 3068 3068 3069 3071 3072 3072 3073 3074 3076 3076 3077 3078 3079 3079 3080 3082
3068 3066 3064 3062 3060 3059 3057 3054 3052 3050 3048 3047 3045 3043 3042 3040 3038 3036 3034 3031 3030 3028 3027 3025 3023 3021 3019 3017 3016 3014 3013 3013 3012 3011 3010 3010 3009 3009 3008 3008 3008 3008 3009 3011 3013 3015 3017 3019 3022 3024 3026 3029 3032 3034 3035 3037 3039 3040 3042 3045 3046 3048 3051 3055 3055 3056 3058 3059 3060 3062 3062 3064 3066 3066 3067 3067 3068 3070 3071 3071 3072 3073 3074 3075 3077
3062 3060 3059 3057 3055 3054 3052 3050 3048 3046 3044 3042 3040 3039 3037 3035 3033 3031 3029 3027 3025 3023 3021 3019 3017 3015 3014 3012 3010 3009 3007 3007 3006 3005 3004 3003 3003 3003 3002 3002 3002 3003 3004 3006 3007 3009 3011 3014 3017 3019 3022 3024 3026 3027 3029 3031 3033 3035 3037 3039 3041 3044 3048 3050 3050 3051 3052 3053 3055 3057 3058 3059 3060 3060 3061 3062 3062 3064 3066 3065 3066 3068 3069 3070 3071
3057 3055 3053 3052 3050 3049 3047 3045 3043 3041 3039 3037 3035 3034 3032 3030 3028 3026 3024 3022 3020 3018 3016 3014 3012 3010 3009 3007 3005 3004 3002 3001 3000 2999 2998 2997 2997 2996 2996 2996 2997 2997 2999 3000 3002 3004 3006 3009 3012 3015 3017 3018 3020 3021 3023 3026 3028 3029 3031 3035 3039 3042 3044 3044 3044 3045 3045 3046 3050 3052 3053 3054 3054 3054 3055 3056 3057 3059 3060 3059 3061 3063 3064 3065 3067
3052 3050 3049 3047 3045 3044 3042 3040 3038 3036 3035 3032 3030 3028 3027 3025 3023 3021 3019 3017 3015 3013 3011 3010 3007 3005 3003 3002 3000 2999 2997 2996 2994 2993 2992 2991 2991 2990 2990 2991 2992 2992 2993 2995 2997 2999 3002 3005 3008 3010 3012 3013 3014 3016 3018 3020 3023 3024 3027 3031 3035 3037 3038 3038 3038 3038 3039 3040 3044 3046 3047 3048 3049 3049 3049 3050 3052 3053 3054 3055 3057 3059 3059 3060 3062
3048 3046 3044 3043 3041 3039 3037 3035 3034 3032 3030 3027 3025 3023 3022 3021 3019 3017 3015 3012 3010 3008 3007 3005 3002 3000 2998 2996 2995 2993 2992 2990 2988 2987 2986 2985 2985 2985 2985 2986 2987 2988 2988 2991 2993 2996 2999 3001 3003 3005 3007 3008 3009 3011 3013 3015 3017 3019 3023 3027 3029 3031 3032 3032 3032 3033 3033 3035 3038 3040 3041 3042 3043 3044 3044 3045 3047 3048 3049 3051 3052 3053 3054 3055 3056
3043 3041 3040 3038 3036 3034 3032 3030 3029 3027 3025 3023 3020 3018 3018 3016 3014 3013 3011 3008 3006 3004 3002 3001 2998 2995 2993 2991 2989 2988 2987 2985 2983 2982 2981 2980 2980 2980 2981 2982 2983 2983 2984 2987 2990 2992 2994 2996 2999 3001 3002 3003 3004 3006 3008 3010 3012 3015 3018 3022 3024 3025 3026 3027 3027 3028 3028 3030 3031 3033 3035 3036 3037 3038 3038 3040 3041 3043 3045 3046 3047 3048 3049 3050 3051
3038 3037 3035 3034 3032 3029 3027 3026 3024 3022 3020 3018 3016 3014 3013 3012 3010 3009 3007 3005 3002 3000 2998 2996 2994 2991 2989 2986 2985 2983 2982 2980 2978 2977 2976 2976 2976 2976 2977 2978 2979 2980 2981 2983 2986 2988 2990 2992 2994 2996 2997 2998 3000 3002 3004 3006 3008 3011 3013 3016 3018 3019 3020 3023 3024 3023 3023 3025 3026 3027 3029 3030 3032 3032 3033 3034 3035 3037 3038 3039 3040 3041 3042 3044 3046
3034 3032 3031 3029 3027 3024 3022 3021 3019 3018 3016 3014 3012 3010 3009 3007 3006 3004 3003 3001 2999 2996 2994 2992 2989 2986 2984 2982 2980 2978 2977 2976 2974 2973 2973 2972 2972 2973 2974 2975 2976 2977 2978 2980 2983 2985 2986 2988 2990 2991 2993 2994 2996 2998 3000 3002 3004 3006 3009 3011 3012 3013 3015 3018 3019 3019 3019 3020 3022 3023 3024 3025 3026 3026 3027 3028 3029 3029 3030 3031 3033 3034 3035 3037 3039
3029 3027 3026 3024 3022 3020 3018 3016 3015 3013 3012 3011 3009 3007 3005 3003 3002 3000 2999 2997 2995 2993 2991 2988 2985 2982 2980 2978 2976 2974 2973 2972 2971 2970 2969 2969 2969 2969 2970 2972 2973 2974 2976 2978 2979 2981 2982 2984 2985 2987 2989 2991 2992 2994 2996 2998 3000 3002 3004 3006 3009 3011 3012 3014 3014 3014 3014 3016 3017 3019 3019 3019 3019 3020 3020 3022 3023 3024 3024 3025 3026 3026 3028 3031 3031
3024 3022 3021 3019 3017 3015 3013 3011 3010 3009 3008 3007 3005 3004 3002 3000 2998 2997 2996 2994 2991 2989 2987 2985 2982 2979 2977 2975 2972 2970 2969 2968 2967 2966 2965 2965 2965 2966 2967 2968 2970 2971 2972 2974 2976 2977 2979 2980 2982 2983 2985 2987 2989 2990 2992 2994 2997 2999 3001 3003 3005 3008 3010 3010 3011 3011 3011 3011 3012 3012 3013 3014 3014 3015 3015 3016 3017 3017 3017 3018 3018 3017 3018 3021 3023
3020 3018 3016 3014 3012 3011 3009 3008 3006 3005 3004 3003 3002 3000 2999 2997 2995 2994 2993 2991 2988 2985 2984 2982 2979 2976 2974 2972 2969 2966 2966 2965 2964 2963 2963 2962 2963 2963 2964 2966 2967 2968 2970 2971 2972 2974 2975 2977 2978 2979 2981 2983 2985 2987 2988 2991 2993 2995 2997 2999 3001 3004 3006 3007 3007 3008 3007 3007 3007 3008 3009 3009 3009 3010 3011 3011 3011 3011 3010 3010 3011 3012 3013 3014 3017
3016 3014 3012 3010 3009 3007 3006 3004 3003 3001 3000 2999 2998 2997 2996 2994 2992 2991 2990 2988 2986 2983 2981 2979 2976 2973 2971 2969 2966 2963 2962 2962 2962 2961 2960 2960 2960 2960 2962 2963 2964 2965 2967 2968 2969 2971 2972 2973 2975 2976 2978 2980 2982 2984 2986 2988 2990 2992 2994 2995 2997 3000 3002 3003 3004 3004 3004 3004 3005 3006 3006 3006 3007 3007 3009 3010 3010 3012 3012 3012 3012 3014 3015 3016 3019
3012 3011 3009 3007 3005 3004 3002 3001 3000 2998 2997 2995 2994 2993 2993 2992 2990 2988 2987 2985 2983 2981 2979 2976 2974 2970 2967 2966 2964 2962 2960 2960 2959 2959 2958 2957 2957 2958 2959 2960 2961 2963 2964 2965 2967 2968 2969 2971 2972 2973 2975 2977 2980 2982 2984 2986 2987 2989 2990 2992 2993 2995 2997 2998 3000 3001 3001 3002 3002 3003 3003 3004 3005 3006 3007 3009 3010 3012 3014 3015 3015 3017 3018 3019 3020
3008 3007 3006 3004 3002 3000 2999 2998 2996 2995 2994 2993 2991 2990 2990 2989 2988 2987 2985 2983 2981 2979 2976 2974 2971 2968 2965 2962 2961 2960 2959 2957 2957 2956 2955 2955 2955 2956 2956 2957 2959 2960 2961 2963 2964 2965 2967 2968 2969 2971 2973 2975 2977 2979 2982 2984 2985 2987 2988 2989 2990 2992 2993 2995 2996 2997 2998 2999 3000 3001 3001 3002 3004 3005 3006 3008 3009 3010 3012 3014 3015 3016 3017 3018 3018
3005 3003 3002 3001 2999 2998 2996 2995 2993 2992 2991 2990 2989 2988 2987 2986 2986 2985 2983 2981 2979 2976 2974 2971 2969 2965 2963 2961 2959 2959 2957 2956 2954 2954 2953 2953 2953 2954 2954 2955 2956 2958 2959 2961 2962 2963 2964 2966 2967 2969 2971 2973 2975 2977 2979 2981 2982 2984 2985 2986 2988 2989 2990 2992 2994 2994 2995 2997 2998 2999 3000 3001 3003 3004 3005 3006 3007 3008 3010 3011 3012 3013 3014 3015 3016
3002 3001 2999 2998 2996 2995 2993 2992 2990 2989 2989 2988 2987 2986 2985 2984 2983 2982 2981 2979 2977 2975 2972 2969 2967 2964 2961 2959 2958 2957 2956 2954 2953 2953 2952 2952 2952 2952 2952 2953 2954 2956 2958 2960 2961 2962 2963 2965 2967 2968 2970 2971 2973 2975 2977 2978 2979 2981 2983 2984 2985 2986 2987 2989 2991 2992 2993 2995 2996 2998 2999 3000 3002 3003 3004 3005 3006 3007 3008 3009 3010 3011 3012 3013 3014
2999 2998 2997 2995 2993 2992 2991 2989 2988 2987 2986 2986 2985 2984 2983 2982 2982 2980 2979 2977 2976 2973 2971 2968 2965 2963 2960 2957 2956 2956 2955 2954 2953 2953 2952 2952 2951 2951 2951 2951 2952 2953 2956 2958 2960 2961 2962 2965 2966 2967 2968 2969 2971 2973 2974 2975 2977 2979 2980 2981 2983 2984 2985 2987 2989 2990 2992 2994 2996 2997 2998 2999 3001 3002 3003 3004 3005 3006 3007 3008 3009 3011 3012 3014 3015
2997 2995 2994 2992 2991 2990 2988 2987 2986 2986 2985 2984 2983 2982 2981 2981 2980 2979 2977 2976 2974 2972 2970 2967 2965 2962 2960 2958 2956 2956 2955 2954 2953 2952 2952 2952 2951 2951 2950 2950 2951 2952 2954 2957 2959 2960 2961 2964 2966 2967 2967 2968 2969 2971 2972 2974 2975 2977 2978 2980 2981 2983 2985 2987 2989 2990 2992 2994 2996 2997 2998 2999 3000 3001 3002 3003 3004 3005 3006 3008 3011 3013 3014 3016 3017
2994 2993 2991 2990 2989 2988 2986 2986 2985 2984 2983 2982 2982 2981 2980 2980 2979 2978 2976 2975 2973 2971 2969 2967 2965 2962 2960 2958 2957 2956 2955 2954 2953 2953 2952 2952 2951 2951 2951 2951 2951 2952 2954 2956 2958 2960 2962 2964 2966 2967 2967 2967 2968 2969 2971 2973 2974 2976 2978 2980 2982 2984 2986 2988 2990 2992 2994 2995 2997 2998 2999 3000 3001 3002 3003 3004 3005 3006 3008 3010 3012 3015 3016 3017 3019
2992 2991 2989 2988 2987 2986 2985 2984 2983 2983 2982 2981 2981 2980 2979 2979 2979 2977 2975 2974 2972 2970 2968 2966 2964 2962 2960 2958 2957 2956 2955 2954 2953 2952 2952 2952 2952 2952 2952 2952 2952 2953 2955 2956 2957 2959 2961 2963 2964 2966 2967 2967 2969 2971 2973 2974 2976 2979 2980 2982 2984 2986 2988 2990 2991 2993 2995 2997 2998 3000 3001 3001 3002 3003 3004 3005 3006 3007 3009 3011 3013 3015 3017 3018 3020
2990 2989 2987 2986 2985 2984 2984 2983 2982 2981 2981 2981 2980 2979 2979 2978 2977 2976 2974 2973 2971 2969 2967 2965 2964 2962 2960 2958 2957 2956 2955 2954 2953 2953 2952 2952 2953 2953 2953 2953 2954 2955 2956 2957 2958 2960 2961 2963 2965 2967 2968 2970 2972 2974 2976 2977 2979 2982 2983 2984 2986 2988 2990 2991 2993 2995 2997 2998 2999 3001 3002 3002 3003 3004 3005 3006 3007 3009 3010 3012 3014 3015 3017 3018 3020
2988 2987 2986 2984 2984 2983 2982 2982 2981 2981 2980 2980 2980 2979 2978 2977 2977 2975 2974 2973 2971 2969 2967 2966 2964 2962 2961 2959 2957 2956 2955 2954 2953 2953 2953 2953 2953 2954 2955 2955 2956 2957 2958 2960 2962 2963 2965 2966 2968 2970 2972 2973 2975 2976 2978 2979 2981 2984 2985 2987 2988 2990 2991 2993 2995 2996 2998 2999 3000 3001 3001 3002 3003 3004 3005 3006 3008 3010 3012 3013 3014 3016 3017 3018 3019
2986 2985 2984 2983 2982 2982 2982 2981 2981 2980 2980 2979 2979 2979 2978 2978 2977 2975 2974 2972 2971 2969 2968 2966 2965 2963 2961 2959 2957 2956 2956 2956 2956 2956 2956 2957 2957 2958 2959 2960 2960 2962 2963 2965 2967 2968 2970 2971 2973 2974 2975 2977 2978 2979 2981 2982 2984 2985 2987 2988 2990 2991 2992 2994 2995 2997 2998 2999 2999 3000 3001 3002 3003 3004 3006 3008 3009 3011 3012 3013 3014 3016 3017 3018 3018
2984 2983 2983 2982 2981 2981 2981 2981 2980 2980 2979 2979 2979 2979 2978 2978 2977 2975 2974 2973 2971 2970 2969 2968 2966 2964 2962 2961 2959 2958 2959 2960 2960 2961 2961 2963 2963 2964 2965 2966 2967 2968 2970 2971 2972 2974 2975 2975 2976 2977 2978 2980 2981 2982 2984 2985 2986 2988 2989 2990 2992 2993 2994 2995 2996 2997 2998 2999 2999 3000 3001 3003 3004 3006 3007 3008 3009 3011 3012 3013 3014 3015 3016 3017 3017
2982 2982 2981 2981 2980 2980 2980 2980 2980 2980 2979 2979 2978 2979 2979 2978 2977 2975 2974 2973 2972 2971 2970 2969 2968 2966 2965 2965 2964 2964 2964 2964 2965 2966 2967 2968 2969 2970 2971 2972 2973 2974 2975 2976 2977 2977 2978 2979 2980 2981 2982 2983 2984 2985 2987 2988 2989 2990 2991 2992 2993 2994 2995 2996 2996 2997 2998 2999 3000 3001 3003 3004 3005 3006 3007 3008 3009 3010 3011 3012 3013 3014 3014 3015 3016
2981 2981 2981 2980 2980 2980 2980 2980 2980 2979 2979 2979 2979 2979 2979 2978 2977 2975 2974 2973 2973 2972 2972 2971 2970 2970 2969 2969 2969 2969 2969 2969 2969 2970 2971 2973 2974 2974 2975 2976 2977 2978 2979 2979 2980 2981 2982 2983 2983 2984 2985 2986 2987 2988 2989 2990 2990 2991 2992 2992 2993 2994 2995 2996 2997 2998 2999 3000 3001 3002 3003 3004 3005 3006 3007 3008 3009 3009 3010 3011 3011 3012 3012 3013 3013
2981 2981 2980 2980 2980 2980 2980 2980 2979 2979 2979 2979 2980 2980 2979 2978 2977 2977 2976 2975 2974 2974 2974 2973 2973 2973 2973 2973 2973 2973 2973 2973 2973 2974 2976 2977 2977 2978 2979 2980 2981 2981 2982 2982 2983 2984 2985 2985 2986 2987 2988 2988 2989 2990 2990 2991 2991 2992 2993 2993 2994 2995 2995 2996 2997 2998 3000 3001 3001 3002 3003 3004 3005 3006 3007 3007 3008 3008 3009 3009 3010 3010 3010 3011 3011
2982 2981 2981 2980 2980 2980 2980 2980 2980 2979 2980 2980 2980 2980 2980 2979 2979 2978 2978 2977 2977 2977 2976 2976 2977 2977 2977 2977 2976 2977 2978 2978 2978 2979 2980 2981 2981 2982 2983 2983 2984 2984 2985 2985 2986 2986 2987 2987 2988 2988 2989 2989 2990 2990 2991 2991 2992 2993 2993 2994 2994 2995 2996 2997 2998 2999 3000 3001 3002 3003 3003 3004 3004 3005 3006 3006 3007 3007 3008 3008 3008 3009 3009 3009 3009
2984 2983 2983 2982 2981 2981 2981 2982 2982 2981 2981 2981 2981 2981 2981 2981 2981 2981 2980 2980 2980 2980 2980 2981 2981 2981 2981 2981 2981 2981 2982 2983 2983 2983 2983 2984 2984 2985 2986 2986 2987 2987 2987 2987 2988 2988 2988 2989 2989 2989 2990 2990 2990 2991 2992 2992 2993 2994 2994 2995 2996 2997 2998 2999 3000 3000 3001 3002 3002 3003 3003 3004 3004 3005 3005 3006 3006 3007 3007 3007 3007 3008 3008 3007 3007
2986 2986 2985 2985 2985 2984 2984 2984 2984 2984 2984 2983 2983 2983 2983 2983 2983 2983 2983 2983 2983 2984 2984 2985 2985 2985 2985 2985 2985 2985 2986 2986 2986 2986 2986 2986 2987 2987 2988 2988 2988 2989 2989 2989 2989 2989 2990 2990 2990 2991 2991 2991 2992 2992 2993 2994 2995 2995 2996 2997 2998 2999 3000 3000 3001 3002 3002 3003 3003 3004 3004 3005 3005 3005 3006 3006 3006 3006 3006 3006 3006 3006 3006 3005 3005
2989 2988 2988 2988 2988 2987 2987 2987 2986 2986 2986 2986 2986 2986 2986 2986 2986 2986 2987 2987 2987 2988 2988 2988 2988 2989 2989 2989 2988 2988 2988 2988 2988 2989 2989 2989 2989 2989 2990 2990 2991 2991 2991 2991 2991 2991 2992 2992 2993 2993 2994 2994 2995 2995 2996 2997 2997 2998 2999 3000 3000 3001 3002 3002 3003 3003 3004 3004 3005 3005 3005 3005 3005 3005 3005 3005 3005 3005 3005 3005 3005 3004 3004 3004 3003
2993 2992 2992 2992 2991 2991 2991 2991 2990 2990 2990 2990 2990 2989 2990 2990 2990 2990 2991 2991 2991 2991 2992 2992 2992 2992 2991 2991 2991 2991 2991 2991 2991 2992 2992 2992 2992 2992 2993 2993 2993 2994 2994 2994 2994 2995 2995 2996 2996 2997 2997 2998 2998 2999 2999 3000 3001 3001 3002 3002 3003 3003 3004 3004 3005 3005 3005 3005 3005 3005 3005 3005 3005 3005 3005 3005 3004 3004 3004 3003 3003 3003 3003 3002 3002
2999 2998 2997 2996 2996 2995 2995 2995 2995 2994 2994 2994 2994 2994 2994 2994 2994 2994 2995 2995 2995 2995 2995 2995 2995 2995 2995 2995 2995 2995 2995 2995 2995 2995 2995 2995 2996 2996 2996 2997 2997 2997 2998 2998 2998 2998 2999 2999 2999 3000 3000 3001 3001 3002 3002 3003 3003 3003 3004 3004 3005 3005 3005 3006 3006 3006 3006 3006 3006 3006 3005 3005 3005 3004 3004 3004 3003 3003 3003 3002 3002 3002 3001 3001 3000